RH
77 78 76 75 74 78 83 89 90 93 94 93 94 92 92 90 95 94 95 92 91 89
80 86 84 80 79 82 81 89 95 91 93 93 94 93 91 94 96 96 95 95 94 92
88 90 89 88 83 81 83 87 92 92 91 94 95 94 95 95 95 97 97 96 96 95
97 94 91 93 86 82 89 91 91 87 88 93 98 97 98 97 97 98 97 97 95 94
95 97 97 98 97 95 94 92 90 92 96 98 98 97 98 98 98 98 94 89 92 92
95 96 98 98 98 98 98 98 97 94 95 96 98 98 99 98 98 96 96 94 93 86
94 95 96 97 97 98 98 98 97 96 96 97 96 93 93 91 93 92 90 90 88 89
92 90 92 93 93 93 93 92 91 92 91 91 88 88 94 91 92 90 89 90 89 88
90 90 92 92 92 92 92 91 90 92 92 92 83 96 97 98 97 95 93 92 86 84
93 97 100 90 91 92 96 92 95 93 90 92 90 96 96 97 92 94 94 94 94 89
95 95 99 99 97 99 96 97 92 92 90 90 88 94 96 96 92 94 94 95 94 95
95 96 96 96 97 97 94 92 92 90 90 90 91 91 93 91 92 93 96 93 93 94
88 91 96 97 98 98 94 96 92 92 92 90 91 88 89 90 90 94 94 94 93 94
91 92 93 92 93 99 98 95 97 97 96 93 95 94 89 88 93 94 92 94 94 94
Wind_Speed
17 12 13 15 11 10 11 11 12 14 13 14 13 13 13 13 11 12 12 15 12 9
11 12 12 14 13 11 13 10 11 15 14 13 12 12 13 10 12 11 12 12 12 11
9 11 10 11 15 15 12 12 11 12 14 12 11 11 12 9 9 10 8 8 10 10
3 7 9 9 10 13 10 10 12 13 14 11 10 11 10 8 9 10 9 8 10 11
12 5 5 4 5 6 7 8 9 9 9 8 9 9 9 7 6 8 10 12 12 13
15 14 4 6 7 6 7 6 6 8 9 8 6 5 5 4 4 4 4 7 10 14
16 15 14 10 10 9 8 7 6 7 7 7 8 9 6 3 0 3 6 8 12 13
17 16 16 17 15 14 15 13 15 14 14 13 14 10 9 6 3 4 6 9 11 13
16 18 19 17 15 15 14 15 16 16 16 17 10 19 16 10 5 3 5 7 9 11
18 14 18 15 16 17 14 16 19 16 15 15 16 21 17 14 6 5 6 7 8 9
18 15 17 16 18 17 13 17 15 16 15 14 15 25 20 10 9 8 9 11 13 10
19 20 18 16 17 13 10 14 15 13 14 15 17 27 23 13 9 9 11 11 15 13
17 17 17 15 14 12 12 13 11 14 14 19 15 27 28 19 8 11 9 11 13 24
18 18 17 16 15 13 13 12 13 14 13 14 17 19 27 26 12 9 9 10 10 12
Wind_Direction
214 213 212 206 194 191 192 198 189 192 192 194 190 190 190 194 189 192 202 207 208 207
207 201 203 198 189 185 186 182 182 186 188 189 187 194 190 192 191 187 202 210 210 212
209 185 185 184 189 191 185 179 176 179 186 174 178 188 193 188 183 188 198 206 209 214
213 169 181 186 193 189 173 175 179 183 185 172 176 179 178 186 177 191 198 200 212 223
3 141 153 158 153 143 153 161 165 173 157 159 164 167 171 177 180 200 216 228 225 231
11 8 98 120 114 114 124 131 156 155 154 149 142 146 137 155 182 210 242 249 241 247
15 14 19 46 64 72 81 95 107 102 95 93 72 51 45 53 288 261 264 264 262 257
21 22 29 35 39 52 53 50 46 51 50 58 53 22 359 334 300 284 294 295 278 267
27 29 34 29 37 50 51 53 58 49 47 43 25 1 3 354 288 292 288 291 302 298
24 20 47 29 44 46 43 54 56 50 51 42 21 6 7 1 26 24 10 350 336 331
24 21 36 35 36 38 36 54 53 51 52 47 29 18 13 21 51 41 29 17 6 352
24 30 32 32 44 40 46 51 51 50 51 52 40 31 25 33 37 44 39 22 18 8
27 32 33 30 36 36 46 55 53 53 42 43 46 44 41 43 36 33 35 36 26 21
26 30 28 31 34 32 41 44 46 47 41 36 37 38 48 48 46 41 35 33 25 28